Location: York
(31.8935°S, 116.7682°E)
Time: 16:34:21
(UTC+08:00)

Hubble Space Telescope - Pass Details

Date: 23 May 2021
Orbit: 535 x 539 km, 28.5° (Epoch: 17 June)

Event Time Altitude Azimuth Distance (km) Brightness Sun altitude
Rises 18:12:00 0° 274° (W) 2,689 6.1 -11.2°
Reaches altitude 10° 18:14:19 10° 279° (W) 1,798 4.9 -11.7°
Maximum altitude 18:18:20 49° 354° (N) 699 1.5 -12.5°
Enters shadow 18:21:46 14° 67° (ENE) 1,574 2.7 -13.2°
